User: anonymous   Login
Location: Drummondville
(45.8830°N, 72.4830°W)
Time: 22:16:54
(UTC-04:00)
Language:

Vanguard 2 - Orbit

View from above orbital plane
View from above orbital plane
View from above satellite
View from above satellite

Ground track
Ground track

The orbit data is extracted from the following two-line orbital elements,

1    11U 59001A   18201.29110595 +.00000010 +00000-0 -14357-4 0  9997
2    11 032.8764 156.3081 1468349 270.5721 072.7394 11.85536207192098
Epoch (UTC): 20 July 2018 06:59:11
Eccentricity: 0.1468349
inclination: 32.8764°
perigee height: 553 km
apogee height: 2939 km
right ascension of ascending node: 156.3081°
argument of perigee: 270.5721°
revolutions per day: 11.85536207
mean anomaly at epoch: 72.7394°
orbit number at epoch: 19209

The dashed part of the orbit path shows where the satellite is in the earth's shadow,  

DLR